Location: B?ezina
(49.8085°N, 13.6013°E)
Time: 21:29:21
(UTC+00:00)

Meteor 1-25 Rocket - Pass Details

Date: 19 May 2025
Orbit: 834 x 891 km, 81.2° (Epoch: 15 June)

Event Time Altitude Azimuth Distance (km) Brightness Sun altitude
Rises 19:39:53 0° 346° (NNW) 3,405 8.4 -7.2°
Reaches altitude 10° 19:42:19 10° 345° (NNW) 2,462 7.7 -7.4°
Maximum altitude 19:47:52 73° 261° (W) 876 4.4 -8.1°
Drops below altitude 10° 19:53:22 10° 178° (S) 2,443 6.2 -8.7°
Enters shadow 19:55:10 - 177° (S) 3,141 6.7 -8.9°
